Погода Рудня

Погода Рудня : погода сейчас, прогноз погоды и архив. Всё, что Вы хотите узнать о погоде Рудня!

Поиск расширенной информации на нашем сайте:

Другие новости

Новости СМИ2

Главная страница сайта

Новости сайта

03.07.2017

Напоминаем, что на нашем специализированном сайте Метеоцентр.Азия вы можете получить высокодетализированные автоматические прогнозы погоды по пунктам России, СНГ и мира в авиационном формате (включающие направление и скорость ветра, видимость, явления погоды, количество и форму облачности, нижнюю и верхнюю границу облачности).

Рекомендуем: Доставка суши и пиццы в донецке domaed.com.

Погода Рудня - сегодня

Время (UTC), дата Ветер
(°,м/с) 
Видим.   Явления Облачность Т
(°С)
Тd
(°С)
f(%) Тe
(°С)
Pmin
(гПа)
dP
(гПа)
Po
(мм)
O2
(г/м3)
Тmin Tmax R s Состояние
почвы
09 19.07.17 060 (СВ) 10 км    ясно 
+26.2 +11 39 +29  1015.7  -0.8  752  274           
12 19.07.17 070 (В) 10 км    4/0 средняя, верхняя 
[Ac trans|Ci fib]
+27.4 +8.8 31 +27  1014.5  -1.2  751  274           
15 19.07.17 070 (В) 10 км    6/3 600 м средняя, верхняя 
[Cu hum|Ac trans|Ci fib]
+25.3 +10.2 39 +27  1014.2  -0.4  751  275    +27.5       
18 19.07.17 020 (С) 10 км    3/0 средняя, верхняя 
[Ac trans|Ci fib]
+21.5 +11 51 +24  1014.5  0.2  751  278           
21 19.07.17 360 (С) 10 км    ясно 
+19.3 +11.1 59 +23  1013.9  -0.7  750  280           
00 20.07.17 340 (С) 10 км    8/8 600 м кучево-дожд. 
[Cb cap]
+16.3 +12.5 78 +22  1013.1  -0.9  750  283           
03 20.07.17 020 (С) 10 км    3/3 600 м 
[Sc]
+18.7 +12.7 68 +25  1012.5  -0.4  749  280  +15.7        влажная 
06 20.07.17 050 (СВ) 10 км    3/0 средняя 
[Ac trans]
+24.3 +13.7 52 +31  1012.3  749  274           
09 20.07.17 070 (В) 10 км    3/0 средняя 
[Ac trans]
+27.7 +13.6 42 +34  1011.8  -0.3  749  271           
12 20.07.17 060 (СВ) 10 км    4/4 600 м 
[Cu hum]
+28.9 +13.7 39 +35  1010.7  -1.1  748  270           
15 20.07.17 030 (СВ) 10 км    6/3 600 м средняя, верхняя 
[Sc diur, vesp|Ac trans|Ci fib]
+27.3 +14 44 +34  1010.4  -0.4  748  271    +29.2       
18 20.07.17 350 (С) 10 км    8/4 600 м средняя 
[Sc diur, vesp|Ac trans]
+22.9 +15 61 +32  1011.9  1.3  749  275           
21 20.07.17 330 (СЗ) 10 км    4/3 600 м средняя 
[Sc diur, vesp|Ac trans]
+20.6 +13.9 65 +27  1011  -1  748  278           
00 21.07.17 340 (С) 10 км    9/0 средняя 
[Ac trans]
+18.3 +12.9 71 +24  1010.9  -0.2  748  280           
03 21.07.17 310 (СЗ) 10 км    4/3 600 м средняя 
[Sc diur, vesp|Ac trans]
+17.8 +13.8 77 +26  1012.1  1.1  749  280  +16.9        сухая 
06 21.07.17 350 (С) 10 км    3/3 600 м средняя 
[Sc|Ac trans]
+24.9 +14.9 54 +33  1011.7  749  273           
09 21.07.17 350 (С) 10 км    5/3 600 м средняя 
[Sc|Ac trans]
+27.7 +11.5 37 +31  1012  0.4  749  272           
12 21.07.17 360 (С) 10 км    4/3 600 м средняя 
[Sc|Ac trans]
+29.2 +8.7 28 +29  1012.2  0.2  749  271           
15 21.07.17 340 (С) 10 км    3/3 600 м 
[Sc]
+26.9 +8.3 31 +27  1012.7  0.4  750  274    +29.2       
18 21.07.17 340 (С) 10 км    3/3 600 м 
[Sc]
+21.2 +10.4 50 +23  1014.5  1.5  751  279           
21 21.07.17 тихо ()   10 км    ясно 
+15.1 +11.3 78 +18  1015.1  0.4  751  285           
00 22.07.17 тихо ()   10 км    ясно 
+13.1 +11.2 88 +16  1015.4  0.2  751  287           
03 22.07.17 тихо ()   10 км    ясно 
+16.1 +12.3 78 +20  1015.9  0.6  752  284  +12.4        сухая 
06 22.07.17 310 (СЗ) 10 км    ясно 
+25.8 +13.4 46 +32  1016  0.5  752  274           
09 22.07.17 280 (З) 10 км    ясно 
+29.7 +9.7 29 +30  1015.3  -0.5  752  271           
Время (UTC), дата Ветер
(°,м/с) 
Видим.   Явления Облачность Т
(°С)
Тd
(°С)
f(%) Тe
(°С)
Pmin
(гПа)
dP
(гПа)
Po
(мм)
O2
(г/м3)
Тmin Tmax R s Состояние
почвы

Для получения пояснительной информации подведите курсор к названию столбца.

ПОГОДА Рудня - архив

Всё, что Вы хотите узнать о погоде Рудня - удобно и подробно!

Выберите нужную дату (начиная с 1 января 2015* года) и нажмите кнопку "Найти".
Будут отображены архивные сводки погоды по пункту Рудня, начиная с указанной даты.


Отображать данные в формате CSV (для использования в таблицах Excel)


Внимание! Наш архив погоды предназначен исключительно для личного некоммерческого использования в познавательных целях. Если Вам необходимы официальные справки о состоянии погоды (для производственных, юридических, коммерческих и т.п. целей), обращайтесь в органы Росгидромета.

*Примечание: данная дата относится к архиву по метеостанциям СССР (Россия, СНГ, Балтия).
Архив по метеостанциям Зарубежной Европы и Азии (кроме Китая) хранится 10 дней, по другим регионам земного шара (Китай, Африка, Америка, Австралия, Океания) - 1 день.

Рудня - район местоположения метеостанции


Название, широта, долгота, высота метеостанции:
Рудня 50.8°ш. 44.6°д. 114 м над ур. моря [Российская Федерация]

Дополнительная информация

В oтличие oт бoльшинства пoгoдных сайтoв мы публикуем пoдрoбную метеoинфoрмацию в детальнoм прoфессиoнальнoм фoрмате.

Характеристики температуры и влажнoсти вoздуха измеряются на высoте 2 м в тени вдали oт зданий и деревьев.
Скoрoсть ветра измеряется на высoте 10 м (на урoвне рoста челoвека скoрoсть ветра ниже в 1.5-2 раза). Если метеoстанция нахoдится в гoрoде или в лесу, тo скoрoсть ветра занижена на 2-4 м/с пo сравнению с oткрытым местoм. Скoрoсть ветра над акватoриями крупных рек и oзёр, а также на вершинах хoлмoв на 2-5 м/с выше, чем в oбычных услoвиях.
Атмoсфернoе давление в разных тoчках местнoсти мoжет значительнo oтличаться oт давления на метеoстанции, в зависимoсти oт услoвий рельефа (при пoдъёме на 10 м давление пoнижается примернo на 1 мм рт.ст.).